Regional Weather Roundup
Issued by NWS

Home | Current Version | Previous Version | Text Only | Print | Product List | Glossary On
Versions: 1 2 3 4 5 6 7 8 9 10 11 12 13 14 15 16 17 18 19 20 21 22 23 24 25 26 27 28 29 30 31 32 33 34 35 36 37 38 39 40 41 42 43 44 45 46 47 48 49
000
ASUS45 KSLC 210010
RWRUT

UTAH REGIONAL WEATHER ROUNDUP
NATIONAL WEATHER SERVICE SALT LAKE CITY UT
600 PM MDT SAT SEP 20 2014

UTZ001>011-023>025-210100-

NORTHERN UTAH

CITY           SKY/WX    TMP DP  RH WIND       PRES   REMARKS
HILL AFB       SUNNY     82  40  22 NW13      30.10F
LOGAN          SUNNY     83  42  23 N7        30.09F
OGDEN          SUNNY     84  36  18 N12       30.07F
PROVO AIRPORT  SUNNY     79  54  41 NW9       30.07
SALT LAKE CITY MOSUNNY   82  50  32 W12       30.05F
VERNAL         SUNNY     80  42  25 SW3       30.13F
WENDOVER       MOSUNNY   82  41  23 E8        30.08S
HEBER CITY     SUNNY     84  27  12 CALM      30.13S
WEST JORDAN    SUNNY     81  45  28 NW10      30.09F

$$

UTZ012>022-026-027-210100-

SOUTHERN UTAH

CITY           SKY/WX    TMP DP  RH WIND       PRES   REMARKS
BRYCE CANYON   CLOUDY    67  46  47 NW17G23   30.26S
CEDAR CITY     CLOUDY    71  51  49 NE10      30.13R
MILFORD        TSTM      68  53  58 SW12      30.12S
MOAB/CYNLANDS  SUNNY     92  33  12 NE12      29.97F
PRICE          MOSUNNY   85  36  17 NE12      30.13S
ST GEORGE      CLOUDY    82  54  36 SE24G33   30.00R

$$

REGIONAL REPORTS     COLORADO/ARIZONA

CITY           SKY/WX    TMP DP  RH WIND       PRES   REMARKS
CRAIG, CO      SUNNY     81  31  16 N5        30.22F
GRAND JUNCTION SUNNY     88  39  17 NW3       30.03S
RIFLE          SUNNY     85  37  18 W12       30.09F
MONTROSE       PTSUNNY   77  48  35 SE10      30.16R
CORTEZ         SUNNY     86  40  19 W7        30.10F
PAGE, AZ       CLOUDY    92  40  16 N7        29.96F
GRAND CANYON   CLOUDY    66  52  60 CALM      30.19F
KINGMAN        MOSUNNY   89  50  26 S13       29.94F
FLAGSTAFF      PTSUNNY   72  49  44 SW10      30.21F

$$

REGIONAL REPORTS    NEVADA/IDAHO/WYOMING

CITY           SKY/WX    TMP DP  RH WIND       PRES   REMARKS
LAS VEGAS, NV  PTSUNNY   96  50  20 S12G20    29.78F HX  93
ELY            CLOUDY    75  37  25 SW7       30.16F
ELKO           PTSUNNY   86  31  13 NE3       30.08S
POCATELLO, ID  SUNNY     83  44  25 N7        30.13F
BURLEY         SUNNY     82  40  22 N6        30.08F
EVANSTON, WY   SUNNY     77  25  14 N7        30.28F
ROCK SPRINGS   SUNNY     77  28  16 NE6       30.27F

$$


USA.gov is the U.S. government's official web portal to all federal, state and local government web resources and services.